GW1775 Weather Reports


time (UTC)temp
F
wind
direction
speed
knots
gust
knots
rain 1hr
in
rain 24hr
in
rain mn
in
humidity
%
barometer
mb
20260906174937 73 56 1.7 1.7 0.00 0.00 0.00 90 1019.3
20260906174432 73 142 1.7 2.6 0.00 0.00 0.00 90 1019.3
20260906173927 73 170 1.7 1.7 0.00 0.00 0.00 89 1019.3
20260906173422 73 194 0.0 0.9 0.00 0.00 0.00 89 1019.4
20260906172921 73 36 2.6 4.3 0.00 0.00 0.00 89 1019.2
20260906172418 73 117 0.9 1.7 0.00 0.00 0.00 89 1019.5
20260906171913 73 71 0.9 0.9 0.00 0.00 0.00 89 1019.6
20260906171407 73 101 2.6 2.6 0.00 0.00 0.00 89 1019.5
20260906170903 73 84 0.9 1.7 0.00 0.00 0.00 88 1019.5
20260906170359 73 166 1.7 1.7 0.00 0.00 0.00 88 1019.3
20260906165856 73 144 1.7 1.7 0.00 0.00 0.00 88 1019.4
20260906165355 73 65 0.9 0.9 0.00 0.00 0.00 89 1019.6
20260906164850 73 131 1.7 1.7 0.00 0.00 0.00 89 1019.7
20260906164349 73 194 1.7 1.7 0.00 0.00 0.00 89 1019.7
20260906163845 73 111 1.7 1.7 0.00 0.00 0.00 89 1019.6
20260906163341 73 131 2.6 2.6 0.00 0.00 0.00 88 1019.5
20260906162839 73 155 0.0 0.9 0.00 0.00 0.00 89 1019.5
20260906162337 73 181 0.9 0.9 0.00 0.00 0.00 89 1019.2
20260906161832 73 122 2.6 4.3 0.00 0.00 0.00 89 1019.5
20260906161326 73 138 4.3 7.0 0.00 0.00 0.00 88 1019.4
20260906160825 73 212 1.7 2.6 0.00 0.00 0.00 89 1019.3
20260906160319 73 102 1.7 2.6 0.00 0.00 0.00 89 1019.5
20260906155817 73 245 0.9 0.9 0.00 0.00 0.00 90 1019.5
20260906155312 73 77 1.7 1.7 0.00 0.00 0.00 90 1019.5
20260906154808 73 137 2.6 5.2 0.00 0.00 0.00 90 1019.3
20260906154302 72 108 1.7 2.6 0.00 0.00 0.00 91 1019.4
20260906153800 71 121 2.6 2.6 0.00 0.00 0.00 92 1019.5
20260906153254 71 57 2.6 4.3 0.00 0.00 0.00 92 1019.7
20260906152750 71 113 1.7 1.7 0.00 0.00 0.00 94 1019.5
20260906152245 71 88 2.6 4.3 0.00 0.00 0.00 93 1019.5
20260906151744 70 162 2.6 2.6 0.00 0.00 0.00 93 1019.7
20260906151240 70 120 1.7 4.3 0.00 0.00 0.00 94 1019.7
20260906150736 70 194 1.7 1.7 0.00 0.00 0.00 94 1019.8
20260906150231 70 168 0.9 1.7 0.00 0.00 0.00 96 1019.6
20260906145730 69 97 2.6 2.6 0.00 0.00 0.00 96 1019.7
20260906145229 69 72 0.9 1.7 0.00 0.00 0.00 96 1019.6
20260906144725 69 149 2.6 2.6 0.00 0.00 0.00 96 1019.7
20260906144219 69 127 1.7 1.7 0.00 0.00 0.00 97 1019.6
20260906143718 69 117 4.3 5.2 0.00 0.00 0.00 97 1019.4
20260906143216 69 160 1.7 1.7 0.00 0.00 0.00 98 1019.6
20260906142715 68 88 4.3 5.2 0.00 0.00 0.00 98 1019.5
20260906142211 68 95 1.7 1.7 0.00 0.00 0.00 98 1019.7
20260906141709 68 123 3.5 4.3 0.00 0.00 0.00 99 1019.7
20260906141204 68 119 2.6 4.3 0.00 0.00 0.00 99 1019.7
20260906140704 68 132 2.6 2.6 0.00 0.00 0.00 99 1019.8
20260906140159 68 109 2.6 2.6 0.00 0.00 0.00 99 1019.6
20260906135655 68 143 0.9 0.9 0.00 0.00 0.00 99 1019.7
20260906135151 68 195 1.7 1.7 0.00 0.00 0.00 99 1019.7
20260906134647 68 163 0.9 0.9 0.00 0.00 0.00 99 1019.7
20260906134142 68 152 4.3 5.2 0.00 0.00 0.00 99 1019.8
20260906133637 68 130 3.5 4.3 0.00 0.00 0.00 99 1019.7
20260906133132 67 134 2.6 2.6 0.00 0.00 0.00 99 1019.4
20260906132627 67 119 0.0 0.0 0.00 0.00 0.00 99 1019.6
20260906132123 67 151 2.6 4.3 0.00 0.00 0.00 99 1019.4
20260906131618 67 100 2.6 4.3 0.00 0.00 0.00 99 1019.2
20260906131113 67 184 3.5 4.3 0.00 0.00 0.00 99 1019.2
20260906130609 67 117 1.7 2.6 0.00 0.00 0.00 99 1019.3
20260906130104 67 136 1.7 1.7 0.00 0.00 0.00 99 1019.0
20260906125601 68 140 0.9 1.7 0.00 0.00 0.00 99 1018.9
20260906125100 68 195 2.6 2.6 0.00 0.00 0.00 99 1018.9
20260906124556 67 124 2.6 4.3 0.00 0.00 0.00 99 1018.6
20260906124051 67 187 2.6 2.6 0.00 0.00 0.00 99 1018.7
20260906123550 67 149 1.7 1.7 0.00 0.00 0.00 99 1018.8
20260906123045 67 98 6.1 7.0 0.00 0.00 0.00 99 1018.8
20260906122544 67 98 2.6 2.6 0.00 0.00 0.00 99 1018.7
20260906122041 67 123 0.9 0.9 0.00 0.00 0.00 99 1018.8
20260906121536 67 147 1.7 1.7 0.00 0.00 0.00 99 1018.5
20260906121033 67 133 2.6 2.6 0.00 0.00 0.00 99 1018.5
20260906120528 67 86 0.0 0.9 0.00 0.00 0.00 99 1018.5
20260906120026 67 122 0.9 0.9 0.00 0.00 0.00 99 1018.3
20260906115525 67 85 0.0 0.9 0.00 0.00 0.00 99 1018.6
20260906115020 67 199 0.0 0.0 0.00 0.00 0.00 99 1018.4
20260906114514 67 147 2.6 2.6 0.00 0.00 0.00 99 1018.2
20260906114010 67 161 0.9 0.9 0.00 0.00 0.00 99 1018.2
20260906113509 66 109 0.0 0.9 0.00 0.00 0.00 99 1018.5
20260906113004 66 185 0.0 0.0 0.00 0.00 0.00 99 1018.5
20260906112458 66 203 0.0 0.0 0.00 0.00 0.00 99 1018.3
20260906111955 65 160 0.0 0.0 0.00 0.00 0.00 99 1018.5
20260906111449 66 168 0.0 0.0 0.00 0.00 0.00 99 1018.3
20260906110944 66 270 0.0 0.0 0.00 0.00 0.00 99 1018.4
20260906110439 66 135 0.0 0.0 0.00 0.00 0.00 99 1018.4
20260906105938 66 152 0.0 0.0 0.00 0.00 0.00 99 1018.5
20260906105434 66 152 0.0 0.0 0.00 0.00 0.00 99 1018.2
20260906104930 66 204 0.0 0.0 0.00 0.00 0.00 99 1018.5
20260906104428 66 174 0.0 0.0 0.00 0.00 0.00 99 1018.4
20260906103928 66 175 0.0 0.0 0.00 0.00 0.00 99 1018.4
20260906103426 66 195 0.0 0.0 0.00 0.00 0.00 99 1018.3
20260906102921 67 154 0.0 0.0 0.00 0.00 0.00 99 1018.1
20260906102421 67 165 0.0 0.0 0.00 0.00 0.00 99 1018.3
20260906101916 67 192 0.9 0.9 0.00 0.00 0.00 99 1017.9
20260906101411 67 87 0.0 0.9 0.00 0.00 0.00 99 1018.1
20260906100907 67 162 0.0 0.0 0.00 0.00 0.00 99 1018.2
20260906100406 67 190 0.0 0.0 0.00 0.00 0.00 99 1018.0
20260906095901 67 163 0.0 0.0 0.00 0.00 0.00 99 1017.9
20260906095356 67 113 0.9 0.9 0.00 0.00 0.00 99 1018.1
20260906094855 67 119 0.0 0.0 0.00 0.00 0.00 99 1018.0
20260906094351 67 154 0.0 0.0 0.00 0.00 0.00 99 1018.0
20260906093847 67 236 0.0 0.9 0.00 0.00 0.00 99 1018.1
20260906093343 67 170 0.0 0.0 0.00 0.00 0.00 99 1017.9
20260906092837 67 174 0.0 0.0 0.00 0.00 0.00 99 1017.6
20260906092331 68 174 0.9 0.9 0.00 0.00 0.00 99 1017.7
20260906091827 68 168 0.9 0.9 0.00 0.00 0.00 99 1017.5
20260906091323 68 183 0.0 0.0 0.00 0.00 0.00 99 1017.5
20260906090820 68 178 0.0 0.0 0.00 0.00 0.00 99 1017.4
20260906090318 68 186 0.9 1.7 0.00 0.00 0.00 99 1017.2
20260906085818 68 163 0.9 0.9 0.00 0.00 0.00 99 1017.3
20260906085311 68 167 0.9 0.9 0.00 0.00 0.00 99 1017.2
20260906084807 68 150 2.6 4.3 0.00 0.00 0.00 99 1017.3
20260906084306 68 129 1.7 1.7 0.00 0.00 0.00 99 1017.2
20260906083801 68 140 2.6 2.6 0.00 0.00 0.00 99 1017.3
20260906083257 68 173 0.0 0.9 0.00 0.00 0.00 99 1017.3
20260906082751 68 133 0.0 0.0 0.00 0.00 0.00 99 1017.2
20260906082246 68 115 1.7 2.6 0.00 0.00 0.00 99 1016.9
20260906081742 68 153 2.6 2.6 0.00 0.00 0.00 99 1017.1
20260906081237 68 27 0.0 0.9 0.00 0.00 0.00 99 1017.1
20260906080733 68 126 0.0 0.0 0.00 0.00 0.00 99 1017.0
20260906080230 68 90 0.0 0.9 0.00 0.00 0.00 99 1017.4
20260906075724 68 155 0.0 0.9 0.00 0.00 0.00 99 1017.2
20260906075224 68 150 0.9 0.9 0.00 0.00 0.00 99 1017.1
20260906074719 68 185 1.7 1.7 0.00 0.00 0.00 99 1017.2
20260906074218 68 144 0.0 0.9 0.00 0.00 0.00 99 1017.2
20260906073713 68 204 0.9 0.9 0.00 0.00 0.00 99 1017.3
20260906073208 68 120 1.7 1.7 0.00 0.00 0.00 99 1017.4
20260906072704 68 147 0.0 0.9 0.00 0.00 0.00 99 1017.3
20260906072159 68 117 0.0 0.9 0.00 0.00 0.00 99 1017.4
20260906071655 68 148 0.0 0.0 0.00 0.00 0.00 99 1017.3
20260906071154 68 180 0.9 0.9 0.00 0.00 0.00 99 1017.4
20260906070652 68 136 0.0 0.9 0.00 0.00 0.00 99 1017.6
20260906070147 69 155 0.0 0.0 0.00 0.00 0.00 99 1017.6
20260906065646 69 149 1.7 1.7 0.00 0.00 0.00 99 1017.7
20260906065142 69 183 0.9 0.9 0.00 0.00 0.00 99 1017.5
20260906064638 69 171 0.9 1.7 0.00 0.00 0.00 99 1017.6
20260906064133 69 150 1.7 2.6 0.00 0.00 0.00 99 1018.0
20260906063628 69 108 2.6 2.6 0.00 0.00 0.00 99 1017.7
20260906063124 69 188 0.9 0.9 0.00 0.00 0.00 99 1017.9
20260906062619 69 135 0.0 0.9 0.00 0.00 0.00 99 1017.6
20260906062118 69 150 0.0 0.9 0.00 0.00 0.00 99 1017.8
20260906061614 69 188 0.0 0.0 0.00 0.00 0.00 99 1017.9
20260906061114 69 276 0.0 0.0 0.00 0.00 0.00 99 1017.9
20260906060611 69 139 0.0 0.0 0.00 0.00 0.00 99 1018.1
20260906060108 69 103 0.0 0.9 0.00 0.00 0.00 99 1017.9
20260906055603 69 136 0.0 0.0 0.00 0.00 0.00 99 1018.0
20260906055058 70 184 0.9 0.9 0.00 0.00 0.00 99 1017.8
20260906054558 70 170 0.9 0.9 0.00 0.00 0.00 99 1017.8
20260906054054 70 149 0.0 0.0 0.00 0.00 0.00 99 1017.9
20260906053550 70 196 0.0 0.0 0.00 0.00 0.00 99 1017.7
20260906053045 70 141 0.9 0.9 0.00 0.00 0.00 99 1017.6
20260906052540 70 161 0.9 0.9 0.00 0.00 0.00 99 1017.8
20260906052038 70 174 0.9 0.9 0.00 0.00 0.00 99 1017.7
20260906051533 70 90 0.0 0.9 0.00 0.00 0.00 99 1017.7
20260906051028 70 156 0.9 0.9 0.00 0.00 0.00 99 1017.8
20260906050523 70 118 0.0 0.0 0.00 0.00 0.00 99 1017.7
20260906050018 70 177 0.0 0.0 0.00 0.01 0.01 99 1017.7
20260906045516 70 126 0.0 0.9 0.00 0.01 0.01 99 1017.6
20260906045012 71 45 1.7 1.7 0.00 0.01 0.01 99 1017.4
20260906044508 71 40 0.9 0.9 0.00 0.01 0.01 99 1017.5
20260906044003 71 110 0.0 0.0 0.00 0.01 0.01 99 1017.4
20260906043459 71 182 0.0 0.9 0.00 0.01 0.01 99 1017.4
20260906042954 71 98 0.9 0.9 0.00 0.01 0.01 99 1017.2
20260906042453 71 46 0.9 0.9 0.00 0.01 0.01 99 1017.7
20260906041953 71 24 0.0 0.9 0.00 0.01 0.01 99 1017.5
20260906041450 71 18 0.0 0.0 0.00 0.01 0.01 99 1017.3
20260906040949 71 325 0.0 0.0 0.00 0.01 0.01 99 1017.5
20260906040444 71 330 0.0 0.9 0.00 0.01 0.01 99 1017.5
20260906035939 71 127 0.0 0.0 0.00 0.01 0.01 99 1017.1
20260906035435 71 128 0.9 0.9 0.00 0.01 0.01 99 1017.4
20260906034930 71 177 0.0 0.0 0.00 0.01 0.01 99 1017.3
20260906034425 71 150 0.0 0.0 0.00 0.01 0.01 99 1017.4
20260906033920 71 171 0.9 0.9 0.00 0.01 0.01 99 1017.5
20260906033415 71 181 0.0 0.0 0.00 0.01 0.01 99 1017.5
20260906032910 71 214 0.0 0.0 0.00 0.01 0.01 99 1017.4
20260906032407 72 188 0.0 0.0 0.00 0.01 0.01 99 1017.4
20260906031901 72 179 0.0 0.0 0.00 0.01 0.01 99 1017.3
20260906031356 72 194 0.0 0.9 0.00 0.01 0.01 99 1017.3
20260906030851 72 130 0.0 0.0 0.00 0.01 0.01 99 1017.2
20260906030346 72 159 0.0 0.0 0.00 0.01 0.01 99 1017.2
20260906025841 72 88 0.0 0.0 0.00 0.01 0.01 99 1017.4
20260906025335 72 333 0.9 0.9 0.00 0.01 0.01 99 1017.3
20260906024834 72 235 0.0 0.0 0.00 0.01 0.01 99 1017.2
20260906024333 72 235 0.0 0.0 0.00 0.01 0.01 99 1017.1
20260906023829 72 242 0.0 0.0 0.00 0.01 0.01 99 1017.1
20260906023325 72 246 0.0 0.0 0.00 0.01 0.01 99 1017.1
20260906022820 72 284 0.0 0.0 0.00 0.01 0.01 98 1016.8
20260906022315 72 315 0.0 0.9 0.00 0.01 0.01 99 1017.2
20260906021811 72 265 0.0 0.0 0.00 0.01 0.01 98 1016.8
20260906021310 72 256 0.0 0.0 0.00 0.01 0.01 98 1016.5
20260906020804 73 256 0.0 0.0 0.00 0.01 0.01 98 1016.5
20260906020259 73 258 0.0 0.0 0.00 0.01 0.01 98 1016.5
20260906015759 73 329 0.0 0.9 0.00 0.01 0.01 98 1016.5
20260906015257 73 36 0.0 0.0 0.00 0.01 0.01 98 1016.2
20260906014752 73 130 0.0 0.0 0.00 0.01 0.01 98 1016.1
20260906014248 73 80 0.0 0.9 0.00 0.01 0.01 97 1016.2
20260906013743 73 210 0.0 0.0 0.00 0.01 0.01 97 1016.1
20260906013243 73 215 0.0 0.0 0.00 0.01 0.01 96 1016.3
20260906012739 73 156 0.0 0.0 0.00 0.01 0.01 96 1016.2
20260906012234 74 157 0.0 0.0 0.00 0.01 0.01 96 1015.9
20260906011729 74 156 0.0 0.0 0.00 0.01 0.01 96 1016.0
20260906011228 74 156 0.0 0.0 0.00 0.01 0.01 95 1016.1
20260906010724 74 158 0.0 0.0 0.00 0.01 0.01 95 1015.9
20260906010221 74 156 0.0 0.0 0.00 0.01 0.01 95 1015.9
20260906005721 75 156 0.0 0.0 0.00 0.01 0.01 94 1016.0
20260906005214 75 156 0.0 0.0 0.00 0.01 0.01 94 1015.8
20260906004713 75 156 0.0 0.9 0.00 0.01 0.01 93 1015.9
20260906004203 76 137 0.0 0.0 0.00 0.01 0.01 92 1015.9
20260906003658 76 167 0.0 0.0 0.00 0.01 0.01 91 1015.9
20260906003154 76 139 0.0 0.0 0.00 0.01 0.01 91 1015.7
20260906002654 77 139 0.0 0.0 0.00 0.01 0.01 91 1015.8
20260906002148 77 184 0.0 0.0 0.00 0.01 0.01 91 1015.8
20260906001644 77 143 0.0 0.9 0.00 0.01 0.01 90 1015.6
20260906001143 78 146 0.9 1.7 0.00 0.01 0.01 89 1015.7
20260906000639 78 158 0.9 0.9 0.00 0.01 0.01 89 1015.5
20260906000135 78 106 3.5 4.3 0.00 0.01 0.01 88 1015.7
20260905235633 79 136 4.3 6.1 0.00 0.01 0.01 88 1015.7
20260905235129 79 151 0.9 0.9 0.00 0.01 0.01 88 1015.6
20260905234624 80 189 0.0 0.0 0.00 0.01 0.01 87 1015.6
20260905234119 80 334 0.0 0.9 0.00 0.01 0.01 86 1015.6
20260905233614 79 156 0.0 0.0 0.00 0.01 0.01 87 1015.2
20260905233108 79 330 0.0 0.9 0.00 0.01 0.01 87 1015.4
20260905232604 80 146 2.6 4.3 0.00 0.01 0.01 86 1015.3
20260905232100 80 100 1.7 2.6 0.00 0.01 0.01 86 1014.9
20260905231554 80 110 1.7 2.6 0.00 0.01 0.01 86 1014.9
20260905231051 81 77 0.9 0.9 0.00 0.01 0.01 86 1015.3
20260905230550 80 314 0.9 0.9 0.00 0.01 0.01 87 1015.1
20260905230049 80 195 0.9 1.7 0.00 0.01 0.01 87 1014.9
20260905225548 80 87 0.0 0.9 0.00 0.01 0.01 87 1014.9
20260905225043 80 152 1.7 1.7 0.00 0.01 0.01 85 1015.1
20260905224538 81 61 0.9 0.9 0.00 0.01 0.01 85 1014.9
20260905224037 80 60 0.9 1.7 0.00 0.01 0.01 85 1014.9
20260905223535 80 129 0.9 1.7 0.00 0.01 0.01 86 1014.8
20260905223031 80 160 0.0 0.0 0.00 0.01 0.01 88 1014.9
20260905222531 79 136 0.0 0.9 0.00 0.01 0.01 87 1014.9
20260905222026 79 145 1.7 1.7 0.00 0.01 0.01 87 1015.0
20260905221522 79 200 2.6 2.6 0.00 0.01 0.01 86 1015.0
20260905221018 79 148 0.9 0.9 0.00 0.01 0.01 87 1015.1
20260905220514 79 54 0.9 0.9 0.00 0.01 0.01 87 1014.9
20260905220009 79 122 0.0 0.9 0.00 0.01 0.01 87 1014.9
20260905215504 79 147 0.9 0.9 0.00 0.01 0.01 87 1014.9
20260905214959 79 140 0.9 0.9 0.00 0.01 0.01 87 1015.0
20260905214450 79 102 0.9 1.7 0.00 0.01 0.01 87 1015.1
20260905213950 80 59 2.6 2.6 0.00 0.01 0.01 87 1015.2
20260905213446 80 129 1.7 1.7 0.00 0.01 0.01 86 1015.3
20260905212941 80 220 0.9 0.9 0.00 0.01 0.01 87 1015.1
20260905212436 79 36 0.9 1.7 0.00 0.01 0.01 87 1015.2
20260905211935 79 318 0.9 0.9 0.00 0.01 0.01 87 1015.3
20260905211431 79 73 0.9 0.9 0.00 0.01 0.01 88 1015.2
20260905210927 78 119 0.9 0.9 0.00 0.01 0.01 89 1015.0
20260905210427 78 138 0.9 0.9 0.00 0.01 0.01 89 1015.1
20260905205926 78 30 0.9 1.7 0.00 0.01 0.01 90 1014.9
20260905205421 77 95 0.9 0.9 0.00 0.01 0.01 90 1015.1
20260905204920 77 92 0.9 1.7 0.00 0.01 0.01 90 1015.3
20260905204417 77 100 1.7 2.6 0.00 0.01 0.01 90 1015.3
20260905203915 77 118 1.7 2.6 0.00 0.01 0.01 91 1015.4
20260905203411 77 47 1.7 1.7 0.00 0.01 0.01 91 1015.2
20260905202906 78 80 1.7 2.6 0.00 0.01 0.01 90 1015.4
20260905202401 78 73 1.7 2.6 0.00 0.01 0.01 90 1015.7
20260905201856 78 177 0.9 1.7 0.00 0.01 0.01 90 1015.7
20260905201352 78 159 0.0 0.9 0.00 0.01 0.01 89 1015.6
20260905200846 78 322 0.9 0.9 0.00 0.01 0.01 89 1015.8
20260905200342 79 55 4.3 4.3 0.00 0.01 0.01 88 1016.1
20260905195840 79 155 4.3 5.2 0.00 0.01 0.01 87 1015.9
20260905195335 79 37 2.6 6.1 0.00 0.01 0.01 88 1015.5
20260905194831 78 91 1.7 2.6 0.00 0.01 0.01 90 1015.2
20260905194330 78 134 2.6 2.6 0.00 0.01 0.01 89 1015.3
20260905193830 78 99 0.9 1.7 0.00 0.01 0.01 90 1015.5
20260905193325 78 78 1.7 2.6 0.00 0.01 0.01 91 1015.1
20260905192820 78 176 3.5 6.1 0.00 0.01 0.01 90 1014.9
20260905192316 78 142 2.6 2.6 0.00 0.01 0.01 90 1015.2
20260905191815 78 9 2.6 4.3 0.00 0.01 0.01 90 1015.6
20260905191314 78 84 3.5 5.2 0.00 0.01 0.01 90 1015.8
20260905190813 78 67 0.0 0.0 0.00 0.01 0.01 91 1016.3
20260905190307 78 47 0.9 0.9 0.00 0.01 0.01 91 1016.6
20260905185806 78 345 0.9 1.7 0.00 0.01 0.01 91 1016.9
20260905185305 78 54 2.6 2.6 0.00 0.01 0.01 91 1017.0
20260905184800 78 119 0.9 0.9 0.00 0.01 0.01 92 1017.1
20260905184254 78 347 0.9 0.9 0.00 0.01 0.01 91 1017.2
20260905183753 78 254 0.0 0.9 0.00 0.01 0.01 91 1017.5
20260905183248 78 249 0.0 0.9 0.00 0.01 0.01 91 1017.1
20260905182748 78 289 2.6 2.6 0.00 0.01 0.01 92 1017.3
20260905182242 78 106 0.9 0.9 0.00 0.01 0.01 94 1017.3
20260905181737 77 119 2.6 4.3 0.00 0.01 0.01 93 1017.1
20260905181236 77 171 0.0 0.9 0.00 0.01 0.01 95 1017.2
20260905180731 77 52 2.6 4.3 0.00 0.01 0.01 95 1016.9
20260905180226 76 88 1.7 1.7 0.00 0.01 0.01 96 1017.0
20260905175721 76 50 0.9 1.7 0.00 0.01 0.01 96 1017.1
20260905175215 76 187 0.9 0.9 0.00 0.01 0.01 97 1017.3